KI5FU-13 Weather Reports


time (UTC)temp
C
wind
direction
speed
KPH
gust
KPH
rain 1hr
cm
rain 24hr
cm
rain mn
cm
humidity
%
barometer
mb
20260506061502 23 163 11.3 19.3 0.00 0.00 0.00 71 1008.4
20260506044553 24 175 11.3 17.7 0.00 0.00 0.00 70 1008.6
20260506043050 24 160 11.3 20.9 0.00 0.00 0.00 70 1008.5
20260506041554 24 165 11.3 17.7 0.00 0.00 0.00 70 1008.5
20260506040049 24 148 4.8 12.9 0.00 0.00 0.00 70 1008.6
20260506034553 24 147 3.2 11.3 0.00 0.00 0.00 70 1008.7
20260506033056 24 132 8.0 14.5 0.00 0.00 0.00 70 1008.4
20260506031547 24 142 4.8 11.3 0.00 0.00 0.00 70 1008.3
20260506030057 25 140 4.8 16.1 0.00 0.00 0.00 70 1008.0
20260506024557 25 143 6.4 12.9 0.00 0.00 0.00 70 1007.7
20260506023046 25 146 4.8 9.7 0.00 0.00 0.00 70 1007.6
20260506021555 25 120 3.2 8.0 0.00 0.00 0.00 70 1007.5
20260506020044 25 149 6.4 16.1 0.00 0.00 0.00 70 1007.3
20260506014544 25 157 4.8 16.1 0.00 0.00 0.00 70 1007.2
20260506013046 25 142 6.4 17.7 0.00 0.00 0.00 69 1006.8
20260506011607 26 129 11.3 24.1 0.00 0.00 0.00 69 1006.6
20260506010042 26 135 14.5 27.4 0.00 0.00 0.00 68 1006.4
20260506004545 26 144 14.5 22.5 0.00 0.00 0.00 67 1006.4
20260506003043 26 137 14.5 25.7 0.00 0.00 0.00 67 1006.2
20260506001542 27 155 9.7 19.3 0.00 0.00 0.00 66 1006.1
20260506000046 27 134 14.5 24.1 0.00 0.00 0.00 66 1006.0
20260505234539 27 145 14.5 27.4 0.00 0.00 0.00 65 1005.9
20260505233037 27 159 16.1 33.8 0.00 0.00 0.00 64 1005.8
20260505231541 28 138 16.1 27.4 0.00 0.00 0.00 63 1005.8
20260505230035 28 140 14.5 27.4 0.00 0.00 0.00 62 1005.7
20260505224534 29 145 16.1 27.4 0.00 0.00 0.00 61 1005.7
20260505223035 29 140 19.3 29.0 0.00 0.00 0.00 60 1005.7
20260505221534 29 151 11.3 17.7 0.00 0.00 0.00 60 1005.7
20260505220046 29 161 19.3 29.0 0.00 0.00 0.00 60 1006.0
20260505214533 29 360 14.5 27.4 0.00 0.00 0.00 59 1006.0
20260505213031 30 360 17.7 24.1 0.00 0.00 0.00 59 1006.2
20260505211524 30 155 14.5 22.5 0.00 0.00 0.00 59 1006.5
20260505210023 30 96 12.9 27.4 0.00 0.00 0.00 60 1006.6
20260505204523 29 180 14.5 24.1 0.00 0.00 0.00 60 1007.0
20260505203018 29 173 17.7 25.7 0.00 0.00 0.00 60 1007.1
20260505201517 28 194 12.9 24.1 0.00 0.00 0.00 61 1007.3
20260505200011 28 186 16.1 22.5 0.00 0.00 0.00 62 1007.6
20260505194518 28 194 14.5 22.5 0.00 0.00 0.00 63 1007.8
20260505193006 28 159 11.3 17.7 0.00 0.00 0.00 64 1008.2
20260505191503 27 172 8.0 16.1 0.00 0.00 0.00 65 1008.3
20260505190100 27 136 11.3 16.1 0.00 0.00 0.00 65 1008.6
20260505184558 26 188 9.7 17.7 0.00 0.00 0.00 65 1008.6
20260505183056 26 186 12.9 17.7 0.00 0.00 0.00 66 1008.7
20260505181552 26 168 8.0 16.1 0.00 0.00 0.00 66 1008.7
20260505180050 25 173 12.9 20.9 0.00 0.00 0.00 67 1008.7
20260505174548 25 171 9.7 16.1 0.00 0.00 0.00 67 1008.8
20260505173045 25 209 9.7 14.5 0.00 0.00 0.00 67 1008.9
20260505171546 24 197 9.7 16.1 0.00 0.00 0.00 68 1009.0
20260505170042 24 182 9.7 12.9 0.00 0.00 0.00 69 1009.0
20260505164554 23 198 8.0 14.5 0.00 0.00 0.00 70 1009.3
20260505163037 23 176 12.9 22.5 0.00 0.00 0.00 71 1009.2
20260505161548 23 185 4.8 11.3 0.00 0.00 0.00 71 1009.4
20260505153032 23 195 6.4 14.5 0.00 0.00 0.00 75 1009.2
20260505151531 23 194 12.9 19.3 0.00 0.00 0.00 76 1009.2
20260505124528 21 163 11.3 19.3 0.00 0.00 0.00 77 1008.5
20260505123015 21 182 9.7 17.7 0.00 0.00 0.00 76 1008.6
20260505121515 21 168 11.3 19.3 0.00 0.00 0.00 76 1008.4
20260505120015 20 176 9.7 14.5 0.00 0.00 0.00 76 1008.3
20260505114513 20 178 8.0 16.1 0.00 0.00 0.00 75 1008.1
20260505113012 20 175 4.8 12.9 0.00 0.00 0.00 75 1008.3
20260505111511 20 178 4.8 9.7 0.00 0.00 0.00 74 1008.1
20260505101507 20 176 4.8 11.3 0.00 0.00 0.00 73 1008.3
20260505100007 20 171 6.4 9.7 0.00 0.00 0.00 72 1008.3
20260505094506 20 169 6.4 11.3 0.00 0.00 0.00 72 1008.2
20260505093004 20 175 6.4 11.3 0.00 0.00 0.00 71 1008.2
20260505091502 20 163 6.4 9.7 0.00 0.00 0.00 71 1008.4
20260505090001 20 180 6.4 9.7 0.00 0.00 0.00 71 1008.7
20260505084503 20 175 6.4 9.7 0.00 0.00 0.00 70 1008.7
20260505083104 20 163 8.0 11.3 0.00 0.00 0.00 70 1008.6
20260505081558 20 179 4.8 11.3 0.00 0.00 0.00 70 1009.1
20260505080111 20 175 6.4 12.9 0.00 0.00 0.00 70 1009.3
20260505074553 20 184 6.4 12.9 0.00 0.00 0.00 69 1009.4
20260505073057 20 190 8.0 14.5 0.00 0.00 0.00 69 1009.5
20260505071551 20 196 9.7 19.3 0.00 0.00 0.00 69 1009.6